{"data":{"norad_id":56470,"intl_designator":"2023-064Y","name":"STARLINK-5523","alt_names":[],"object_type":"PAYLOAD","status":"ACTIVE","operator":null,"country":"US","launch_date":"2023-05-10","launch_site_code":"AFWTR","launch_vehicle":null,"mission":null,"orbit_class":"UNKNOWN","rcs_meters":null,"size_class":null,"mass_kg":null,"dimensions":null,"purposes":["comms"],"wikipedia_slug":null,"has_3d_model":false,"image_url":null,"decayed_at":null,"tle_current":{"epoch":"2026-09-20T22:00:03.000096Z","epoch_age_seconds":76049,"freshness":"FRESH","line1":"1 56470U 23064Y   26263.91670139  .00001846  00000+0  13875-3 0  9997","line2":"2 56470  70.0020 352.3027 0003768 238.9457   7.7421 15.04449373  5766","mean_motion":15.04449373,"eccentricity":0.0003768,"inclination_deg":70.002,"raan_deg":352.3027,"arg_perigee_deg":238.9457,"mean_anomaly_deg":7.7421,"bstar":0.00013875,"rev_number":576,"period_min":95.716082298504,"perigee_km":550.58468090543,"apogee_km":555.80813376119,"semimajor_km":6931.3334073333,"source":"CELESTRAK","updated_at":"2026-09-21T09:00:33.445509Z"}}}